[[{"header":{"parameterUnit":"m.s-1","parameterCategory":1,"la1":30.2991,"la2":30.254,"lo1":-89.0895,"lo2":-89.0444,"dy":0.0017,"dx":0.0017,"nx":28,"ny":28,"refTime":"2025-11-09T03:00:00:Z","depth":0,"parameterNumber":2,"parameterNumberName":"U-component_of_WINDS"},"data":[0,0,0,0,0,0,0,0,0,0,0,0,0,0,0,0,0,0,0,0,0,0,0,0,0,0,0,0,0,0,0,0,0,0,0,0,0,0,0,0,0,0,0,0,0,0,0,0,0,0,0,0,0,0,0,0,0,0,2.5977,2.5978,0,2.6055,2.6055,2.6056,2.6071,2.607,2.6069,2.6069,2.6151,2.6154,2.6157,0,0,0,0,0,0,0,0,0,0,0,0,0,2.5845,2.5848,2.5977,2.5978,2.5979,2.6054,2.6056,2.6057,2.6071,2.607,2.6069,2.6068,2.615,2.6153,2.6157,0,0,0,0,0,0,0,0,0,0,0,0,0,2.5911,2.5848,2.5977,2.5995,2.5997,2.6054,2.6056,2.6057,2.6071,2.607,2.6069,2.6068,2.6149,2.6153,2.6157,2.6203,0,0,2.617,2.6172,0,0,0,0,0,0,0,0,2.5907,2.5916,2.5991,2.5994,2.5996,2.6052,2.6039,2.6106,2.6071,2.6043,2.6069,2.6067,2.6119,2.6126,2.6142,2.6206,2.621,2.617,2.6173,2.6175,2.6176,0,0,0,0,0,0,0,2.5902,2.5912,2.6008,2.5992,2.5995,2.6001,2.6009,2.6052,2.6086,2.6045,2.6046,2.6055,2.612,2.6138,2.6144,2.6211,2.617,2.6174,2.6177,2.6178,2.632,2.6321,0,0,0,0,0,0,2.5894,2.5908,2.6005,2.601,2.5948,2.6004,2.6013,2.6035,2.6085,2.6092,2.6056,2.6056,2.6132,2.614,2.6147,2.6205,2.6175,2.6179,2.6181,2.6319,2.632,2.6322,0,0,0,0,0,0,2.5891,2.5903,2.6002,2.596,2.5973,2.6007,2.6032,2.6037,2.6055,2.6093,2.61,2.6068,2.6131,2.6142,2.6189,2.6208,2.6181,2.6184,2.6317,2.6319,2.6321,2.6321,0,0,0,0,0,0,2.5887,2.5901,2.5917,2.596,2.5975,2.6041,2.6033,2.6039,2.6062,2.6062,2.6106,2.6113,2.6131,2.6183,2.6194,2.6214,2.6188,2.6316,2.6318,2.6321,2.6319,2.6322,2.6325,0,0,0,0,0,2.5883,2.5914,2.5918,2.593,2.5995,2.6042,2.6051,2.6071,2.6063,2.6081,2.6106,2.6111,2.6205,2.6188,2.62,2.6221,2.6315,2.6318,2.632,2.6318,2.6322,2.6325,0,0,0,0,0,0,2.5873,2.592,2.5925,2.5971,2.6002,2.6044,2.6066,2.6074,2.6108,2.6107,2.6132,2.6142,2.6189,2.621,2.619,2.627,2.626,2.6265,2.6254,2.6258,2.6261,2.6254,2.6191,0,0,0,0,0,2.5876,2.5909,2.5949,2.5985,2.6001,2.6031,2.6052,2.6065,2.6099,2.6113,2.6141,2.6175,2.6213,2.6236,2.6273,2.6323,2.6334,2.6344,2.6347,2.635,2.6354,2.6385,2.639,2.6331,2.6331,2.6331,0,0,2.5883,2.5913,2.5932,2.5984,2.601,2.6045,2.6042,2.6078,2.6105,2.6118,2.6165,2.6188,2.6228,2.6278,2.6301,2.6297,2.6373,2.6353,2.6355,2.6358,2.6388,2.6394,2.6399,2.6333,2.6333,2.6332,0,0,2.5914,2.5939,2.5973,2.6,2.6039,2.606,2.6068,2.611,2.6125,2.6173,2.6184,2.6218,2.6281,2.631,2.6332,2.6378,2.6385,2.639,2.6404,2.6434,2.6439,2.6443,2.6461,2.6467,2.6394,2.6394,2.6394,0,2.5917,2.5969,2.599,2.6027,2.605,2.6065,2.6101,2.6126,2.6176,2.6193,2.6188,2.627,2.6297,2.6355,2.6367,2.6384,2.6396,2.6384,2.6436,2.6441,2.6445,2.6462,2.6469,2.6394,2.6394,2.6394,2.6394,0,2.5972,2.6008,2.6032,2.6079,2.6106,2.6142,2.6171,2.6196,2.6208,2.623,2.628,2.6314,2.6359,2.6374,2.6386,2.6435,2.6431,2.6431,2.6421,2.6451,2.6467,2.6474,2.6394,2.6394,2.6394,2.6394,0,0,2.5996,2.6057,2.6065,2.6088,2.6135,2.6164,2.6202,2.6246,2.6267,2.6303,2.6337,2.6392,2.6393,2.6419,2.6435,2.6461,2.6498,2.6458,2.646,2.6465,2.6556,2.6556,2.6563,2.6503,2.6504,2.6505,2.6553,0,2.6032,2.6099,2.6121,2.6178,2.6213,2.6229,2.6263,2.6297,2.6319,2.6354,2.6379,2.6418,2.6416,2.6432,2.6459,2.6487,2.6516,2.6484,2.6537,2.6538,2.6525,2.6571,2.657,2.6613,2.656,2.6561,2.6561,0,2.6082,2.6118,2.6178,2.6223,2.6238,2.6268,2.6311,2.6344,2.6384,2.6398,2.6429,2.6444,2.6488,2.6477,2.6538,2.6516,2.654,2.6557,2.656,2.6565,2.6551,2.6578,2.6627,2.6633,2.6572,2.6571,2.657,0,2.6094,2.6158,2.6203,2.6222,2.6275,2.6296,2.6319,2.6358,2.6384,2.6423,2.644,2.6484,2.6508,2.6543,2.657,2.6559,2.663,2.6621,2.6645,2.6645,2.6658,2.6657,2.6712,2.6674,2.6674,2.6674,2.6673,0,2.6132,2.6168,2.6209,2.6236,2.6279,2.6306,2.6347,2.6372,2.6407,2.6442,2.6459,2.6492,2.6526,2.6563,2.6586,2.6635,2.6645,2.666,2.6665,2.6658,2.6656,2.6673,2.6671,2.6675,2.6675,2.6675,2.6674,0,2.6151,2.618,2.623,2.6277,2.629,2.6319,2.636,2.6389,2.6414,2.6457,2.6469,2.6508,2.6554,2.6585,2.6644,2.6659,2.6712,2.6717,2.6698,2.6701,2.6724,2.6721,2.6791,2.6802,2.6757,2.6757,2.6757,0,2.6173,2.6201,2.6252,2.6276,2.6299,2.6337,2.6364,2.6393,2.6421,2.647,2.6494,2.6541,2.6579,2.6652,2.6687,2.6733,2.6739,2.6761,2.6746,2.6739,2.674,2.6738,2.6742,2.6762,2.6763,2.6763,2.6763,0,2.6209,2.6222,2.6259,2.6302,2.6334,2.6369,2.6405,2.6425,2.646,2.6491,2.6538,2.6568,2.6629,2.6676,2.6726,2.6753,2.6765,2.6768,2.6776,2.6769,2.6757,2.6765,2.6704,2.6766,2.6766,2.6765,2.6765,2.6765,2.623,2.6257,2.6297,2.6339,2.637,2.6403,2.6433,2.6462,2.6501,2.6552,2.6568,2.6617,2.666,2.6728,2.6756,2.6797,2.6795,2.6807,2.681,2.6812,2.6812,2.6751,2.6806,2.6806,2.6806,2.6806,2.6806,0,2.6267,2.6295,2.6333,2.6383,2.6417,2.6425,2.6467,2.6495,2.6537,2.6576,2.6614,2.667,2.6716,2.6756,2.6805,2.6831,2.6838,2.6843,2.6841,2.6847,2.6811,2.6799,2.6836,2.6836,2.6836,2.6836,2.6836,2.6836,2.629,2.6337,2.6356,2.6419,2.6447,2.6494,2.6517,2.655,2.6581,2.6642,2.668,2.6706,2.6746,2.6799,2.6844,2.6855,2.6872,2.6876,2.6888,2.6853,2.6849,2.6846,2.6835,2.6879,2.688,2.6921,2.6922,2.6922]},{"header":{"parameterUnit":"m.s-1","parameterCategory":1,"la1":30.2991,"la2":30.254,"lo1":-89.0895,"lo2":-89.0444,"dy":0.0017,"dx":0.0017,"nx":28,"ny":28,"refTime":"2025-11-09T03:00:00:Z","depth":0,"parameterNumber":3,"parameterNumberName":"V-component_of_WINDS"},"data":[0,0,0,0,0,0,0,0,0,0,0,0,0,0,0,0,0,0,0,0,0,0,0,0,0,0,0,0,0,0,0,0,0,0,0,0,0,0,0,0,0,0,0,0,0,0,0,0,0,0,0,0,0,0,0,0,0,0,-7.0997,-7.0998,0,-7.1062,-7.1063,-7.1064,-7.0987,-7.0984,-7.0981,-7.0978,-7.104,-7.1044,-7.1048,0,0,0,0,0,0,0,0,0,0,0,0,0,-7.0801,-7.0805,-7.0997,-7.0998,-7.0999,-7.1062,-7.1063,-7.1064,-7.0987,-7.0984,-7.098,-7.0977,-7.1038,-7.1043,-7.1048,0,0,0,0,0,0,0,0,0,0,0,0,0,-7.0878,-7.0807,-7.0997,-7.0968,-7.0966,-7.1062,-7.1063,-7.1064,-7.0988,-7.0984,-7.0979,-7.0975,-7.1036,-7.1043,-7.1049,-7.1175,0,0,-7.1069,-7.1072,0,0,0,0,0,0,0,0,-7.0874,-7.0886,-7.0972,-7.097,-7.0968,-7.1012,-7.1017,-7.1101,-7.0989,-7.098,-7.0978,-7.0973,-7.1034,-7.104,-7.1061,-7.1178,-7.118,-7.1069,-7.1073,-7.1076,-7.1078,0,0,0,0,0,0,0,-7.0869,-7.0882,-7.1023,-7.0973,-7.0971,-7.0951,-7.0957,-7.1032,-7.103,-7.098,-7.0975,-7.0984,-7.1032,-7.1055,-7.1062,-7.1181,-7.1069,-7.1075,-7.1079,-7.1081,-7.1404,-7.1409,0,0,0,0,0,0,-7.0868,-7.0878,-7.1021,-7.1025,-7.091,-7.0958,-7.0964,-7.1002,-7.1029,-7.1029,-7.0987,-7.098,-7.1046,-7.1055,-7.1064,-7.1213,-7.1076,-7.1082,-7.1086,-7.14,-7.1405,-7.1411,0,0,0,0,0,0,-7.0864,-7.0881,-7.1018,-7.095,-7.0966,-7.0966,-7.1009,-7.1006,-7.1029,-7.1034,-7.1033,-7.1012,-7.1043,-7.1055,-7.1148,-7.1214,-7.1085,-7.1091,-7.1394,-7.1402,-7.1408,-7.1513,0,0,0,0,0,0,-7.0858,-7.088,-7.0929,-7.0952,-7.097,-7.1103,-7.1013,-7.101,-7.1041,-7.1032,-7.1057,-7.1057,-7.1041,-7.1139,-7.1155,-7.1221,-7.1096,-7.1388,-7.1397,-7.1406,-7.1504,-7.1523,-7.1539,0,0,0,0,0,-7.0852,-7.0954,-7.0932,-7.0949,-7.1031,-7.1107,-7.1117,-7.1098,-7.1047,-7.1095,-7.1099,-7.1056,-7.1205,-7.1149,-7.1166,-7.1235,-7.1384,-7.1395,-7.1405,-7.1496,-7.1519,-7.1539,0,0,0,0,0,0,-7.0936,-7.0956,-7.0932,-7.1045,-7.1075,-7.1094,-7.1154,-7.1123,-7.1166,-7.1156,-7.1129,-7.1135,-7.1235,-7.1244,-7.1182,-7.1359,-7.1286,-7.13,-7.1349,-7.1371,-7.1389,-7.1384,-7.1101,0,0,0,0,0,-7.0968,-7.103,-7.1043,-7.1142,-7.1159,-7.1154,-7.1186,-7.117,-7.1198,-7.121,-7.122,-7.1249,-7.1302,-7.1337,-7.1386,-7.1505,-7.1509,-7.1561,-7.1579,-7.1593,-7.1606,-7.167,-7.1693,-7.1445,-7.1445,-7.1445,0,0,-7.1034,-7.1053,-7.1093,-7.116,-7.1181,-7.1244,-7.1165,-7.1234,-7.1281,-7.122,-7.1309,-7.1318,-7.1348,-7.1455,-7.1503,-7.1466,-7.1676,-7.1607,-7.1619,-7.1623,-7.1683,-7.1707,-7.1728,-7.1453,-7.1451,-7.145,0,0,-7.1187,-7.1208,-7.1293,-7.1317,-7.1351,-7.1348,-7.1368,-7.1392,-7.1397,-7.1487,-7.1443,-7.1496,-7.1588,-7.1612,-7.1636,-7.1801,-7.1763,-7.1817,-7.191,-7.1973,-7.1992,-7.201,-7.2068,-7.209,-7.183,-7.183,-7.183,0,-7.1264,-7.1359,-7.134,-7.1414,-7.1444,-7.1395,-7.1481,-7.1504,-7.1551,-7.1573,-7.1532,-7.1648,-7.1664,-7.1777,-7.1818,-7.1839,-7.186,-7.1814,-7.1992,-7.2009,-7.2024,-7.208,-7.2102,-7.1837,-7.1836,-7.1835,-7.1835,0,-7.1453,-7.1519,-7.1584,-7.1634,-7.1672,-7.1751,-7.1743,-7.1783,-7.1764,-7.1764,-7.1857,-7.1875,-7.1928,-7.1953,-7.1934,-7.2064,-7.204,-7.1996,-7.1922,-7.2055,-7.2106,-7.2128,-7.1846,-7.1843,-7.1842,-7.184,0,0,-7.1658,-7.1699,-7.1723,-7.1746,-7.1782,-7.1832,-7.1909,-7.1963,-7.1998,-7.2033,-7.2096,-7.2177,-7.2137,-7.2164,-7.2147,-7.2203,-7.2332,-7.2151,-7.2152,-7.2184,-7.2476,-7.2509,-7.2534,-7.2308,-7.2312,-7.2316,-7.2474,0,-7.1812,-7.1948,-7.1933,-7.2062,-7.2123,-7.2079,-7.2146,-7.2174,-7.2177,-7.2229,-7.2231,-7.2289,-7.2232,-7.2248,-7.2301,-7.2305,-7.239,-7.2294,-7.2366,-7.2368,-7.2359,-7.2561,-7.2595,-7.2744,-7.2494,-7.2497,-7.25,0,-7.2008,-7.2054,-7.219,-7.2217,-7.2242,-7.2303,-7.2352,-7.2402,-7.2433,-7.2432,-7.2464,-7.2438,-7.2514,-7.244,-7.2544,-7.2479,-7.2508,-7.2514,-7.252,-7.2525,-7.2442,-7.2571,-7.2791,-7.2813,-7.2532,-7.2529,-7.2527,0,-7.2145,-7.224,-7.2333,-7.2354,-7.2389,-7.2433,-7.2449,-7.2476,-7.251,-7.2552,-7.2574,-7.2624,-7.2651,-7.269,-7.2677,-7.2624,-7.2785,-7.2709,-7.2784,-7.2785,-7.2819,-7.2817,-7.3046,-7.2839,-7.2839,-7.2838,-7.2838,0,-7.2318,-7.2402,-7.2396,-7.2453,-7.2547,-7.253,-7.2622,-7.2632,-7.2657,-7.2715,-7.2679,-7.2733,-7.2714,-7.2767,-7.2758,-7.2846,-7.2858,-7.2858,-7.2855,-7.2862,-7.2862,-7.2879,-7.2868,-7.2844,-7.2843,-7.2842,-7.2841,0,-7.2485,-7.2485,-7.2584,-7.261,-7.2618,-7.2686,-7.2707,-7.2761,-7.2762,-7.2836,-7.2852,-7.2854,-7.2915,-7.2907,-7.2974,-7.2968,-7.3077,-7.3061,-7.3068,-7.3064,-7.314,-7.3133,-7.3387,-7.342,-7.3192,-7.3195,-7.3196,0,-7.2595,-7.266,-7.2694,-7.2732,-7.2752,-7.2812,-7.2847,-7.2833,-7.2871,-7.2913,-7.2961,-7.302,-7.3065,-7.3165,-7.3171,-7.3222,-7.3207,-7.3293,-7.3214,-7.3219,-7.3208,-7.3204,-7.321,-7.3308,-7.331,-7.3312,-7.3314,0,-7.2791,-7.2788,-7.2841,-7.2895,-7.2939,-7.298,-7.3017,-7.305,-7.3039,-7.3083,-7.3147,-7.3183,-7.3253,-7.3311,-7.336,-7.3374,-7.3343,-7.3339,-7.3359,-7.3366,-7.3367,-7.3368,-7.3109,-7.3333,-7.3331,-7.333,-7.3329,-7.3328,-7.2932,-7.2988,-7.3022,-7.3083,-7.311,-7.3146,-7.3199,-7.3208,-7.3261,-7.3319,-7.3307,-7.3379,-7.3409,-7.3472,-7.3492,-7.3547,-7.3515,-7.3544,-7.3551,-7.3559,-7.3568,-7.336,-7.3555,-7.3555,-7.3554,-7.3554,-7.3553,0,-7.3126,-7.3146,-7.3203,-7.3257,-7.3306,-7.3274,-7.3314,-7.3356,-7.342,-7.3452,-7.3499,-7.3572,-7.3629,-7.3641,-7.3695,-7.3736,-7.3723,-7.3751,-7.3747,-7.3751,-7.3593,-7.357,-7.3761,-7.3761,-7.3761,-7.3761,-7.3761,-7.3761,-7.3232,-7.3325,-7.3327,-7.3433,-7.3452,-7.3524,-7.3549,-7.3582,-7.3608,-7.3692,-7.374,-7.3749,-7.3772,-7.3828,-7.3879,-7.388,-7.3901,-7.3935,-7.3931,-7.3783,-7.3762,-7.3742,-7.3721,-7.394,-7.394,-7.4085,-7.4086,-7.4087]}]]